Wind_Speed
9 9 9 8 8 10 10 11 11 13 15 16 15 15 14 13 11 10 10 14 18 8 6 8 13 11 3 0 3 4 3 2 4 5 5 3 7 4 3 5 5 3 3 5 11
11 11 11 10 10 11 11 11 12 13 14 16 15 14 13 11 10 13 20 20 21 23 12 5 6 9 2 3 2 4 4 8 6 4 4 5 2 6 6 7 5 4 4 5 4
10 11 11 11 11 11 12 12 11 12 13 15 14 14 13 9 4 8 24 29 24 23 16 6 5 7 5 3 4 5 6 5 5 7 3 4 7 3 4 7 6 9 9 5 2
11 12 10 11 11 11 11 10 12 12 12 12 14 13 13 10 7 4 5 22 29 22 17 6 5 8 6 7 5 3 7 5 4 2 2 4 5 7 7 10 10 9 6 5 7
11 12 11 11 10 9 10 10 11 12 12 12 14 13 9 6 10 7 5 9 22 23 19 9 6 6 8 7 5 4 4 3 7 9 7 4 9 8 10 13 8 9 9 10 8
13 12 11 10 11 11 11 11 10 14 12 13 14 14 4 14 12 26 24 18 7 24 19 13 8 6 6 6 10 6 7 8 5 10 5 6 9 4 6 5 9 8 11 9 7
14 13 12 12 11 12 13 12 10 12 15 14 13 12 7 16 4 3 7 19 13 22 15 20 15 6 6 3 5 3 3 7 6 5 7 6 13 12 12 2 9 10 10 4 6
14 14 12 13 15 15 14 14 13 12 13 15 12 10 7 2 27 17 8 5 10 20 25 14 26 2 3 2 4 6 2 4 4 2 4 6 17 11 8 5 7 8 7 5 7
13 13 13 16 16 16 17 15 15 13 10 9 6 6 6 5 16 19 19 7 5 19 12 15 5 4 3 5 4 3 4 6 7 4 3 4 8 8 2 5 5 3 4 4 7
16 16 16 17 17 17 19 13 10 8 7 4 1 2 7 4 6 12 21 20 4 10 7 8 5 5 4 5 7 6 4 3 5 2 2 5 13 17 5 1 3 5 3 5 7
17 19 17 19 18 19 18 8 5 1 7 7 9 3 2 13 11 12 16 11 4 5 12 9 9 12 13 13 4 6 4 7 4 4 2 7 8 15 8 5 4 5 4 4 7
16 19 19 17 16 11 25 5 7 5 5 13 3 13 13 1 4 8 22 9 6 9 14 8 16 14 7 7 4 3 3 5 6 1 3 7 10 12 7 6 4 8 6 4 5
13 16 18 17 10 13 24 20 14 4 2 6 11 4 5 10 7 13 18 5 5 13 20 11 4 15 13 6 10 3 5 4 5 7 4 6 7 6 2 2 6 6 4 3 6
13 14 15 14 4 7 9 21 9 9 4 7 10 7 9 2 5 18 21 9 5 17 20 6 4 13 16 11 6 9 6 3 3 4 3 5 6 6 5 4 6 7 6 6 6
14 14 13 8 5 5 5 26 19 6 1 11 8 6 11 7 5 14 25 9 9 9 9 7 14 11 15 17 9 4 5 6 2 3 3 1 2 7 2 5 6 7 6 5 6
15 14 9 7 15 2 14 25 12 3 5 9 8 10 11 11 4 9 9 1 2 8 3 3 5 9 7 4 11 6 5 2 3 2 2 6 7 6 4 6 4 4 6 7 6
16 15 10 10 6 14 26 7 3 4 3 7 7 10 13 7 10 10 16 15 9 12 14 1 4 3 6 6 3 4 7 2 1 1 6 1 2 8 4 5 9 12 10 8 6
17 14 14 18 17 24 7 2 6 3 8 6 7 12 7 9 8 12 13 11 12 1 13 7 5 8 6 6 6 7 8 5 6 4 4 2 6 5 3 6 7 9 10 8 7
17 11 7 18 30 27 5 3 4 5 7 11 11 8 4 10 2 10 17 11 13 11 10 8 5 2 5 5 12 6 8 4 5 1 1 3 7 8 4 6 3 10 11 9 8
5 3 4 15 34 18 3 4 7 6 12 15 7 5 9 15 8 5 8 9 11 11 7 7 5 0 2 6 3 7 8 2 2 3 4 4 5 5 5 2 3 8 10 8 6
4 1 5 26 24 5 3 6 4 13 10 7 6 6 7 8 5 4 8 3 10 9 4 6 4 2 6 6 8 2 4 4 4 3 4 1 6 5 5 4 8 7 6 8 8
2 1 11 25 5 3 6 5 6 11 1 2 4 6 8 8 5 6 8 6 9 8 8 4 6 6 3 1 5 4 7 6 5 4 1 3 6 2 5 4 7 6 6 7 7
2 2 10 6 3 2 2 2 3 3 1 3 3 4 9 6 6 4 5 3 7 7 9 8 2 5 2 1 2 4 4 4 5 3 6 6 5 3 6 6 6 8 8 7 6
2 2 2 3 2 2 3 4 3 1 3 4 5 7 10 4 2 6 6 1 3 3 5 7 3 6 9 4 6 5 5 5 6 4 5 6 5 3 3 5 4 4 3 6 7
2 3 3 4 4 5 4 6 3 5 7 3 3 14 7 5 4 5 3 4 4 5 4 4 4 3 3 4 4 6 9 11 9 9 7 5 8 3 2 4 4 3 2 5 6
3 3 1 1 1 5 4 5 4 3 4 1 7 4 4 4 4 8 8 4 5 3 3 3 2 3 2 3 3 2 4 8 4 4 2 5 4 2 2 3 3 2 2 4 6
2 1 2 0 2 3 3 5 5 5 3 4 7 6 9 1 1 4 6 7 6 7 3 5 5 3 3 2 2 4 8 8 5 4 7 7 6 4 3 5 3 3 2 4 5
Wind_Direction
318 313 299 289 282 277 267 263 260 255 240 238 234 244 234 233 237 242 236 238 240 224 350 262 233 228 239 241 126 131 77 211 237 187 249 293 353 298 275 266 306 276 250 290 320
312 304 294 289 282 273 263 256 253 252 246 241 230 227 231 233 246 242 244 246 244 231 272 264 189 157 211 206 164 130 155 221 214 202 244 298 286 312 333 320 296 309 263 322 346
307 296 289 284 275 271 269 256 248 250 248 239 232 226 222 213 303 253 260 242 233 238 237 270 267 162 190 154 191 175 202 217 255 239 263 267 303 238 273 297 236 286 291 318 265
296 290 291 281 274 270 268 266 256 249 242 239 233 226 211 170 226 60 335 228 222 221 224 224 207 158 176 186 186 173 241 214 280 249 292 276 308 289 213 244 257 275 291 290 255
286 286 285 278 275 266 268 261 258 244 239 239 235 217 194 213 230 213 25 12 221 213 215 205 169 159 182 175 140 200 259 244 249 276 257 275 254 240 261 261 288 292 293 275 272
282 282 274 277 268 266 263 257 250 238 234 235 229 202 190 241 260 237 259 291 243 203 216 209 199 191 158 189 184 203 219 268 286 274 256 249 268 162 252 279 305 303 288 301 294
283 282 279 274 277 270 261 254 246 238 230 228 221 199 214 227 222 102 280 259 274 208 213 209 219 202 134 148 200 193 295 302 266 262 258 184 281 237 251 285 291 323 310 322 16
279 280 288 278 276 266 260 249 246 239 242 227 217 195 242 340 244 256 279 299 234 207 217 229 203 223 191 187 78 141 135 271 281 310 284 144 274 281 261 243 315 332 337 62 57
274 276 287 284 286 262 246 238 230 232 238 237 222 208 265 227 228 241 231 277 200 187 219 233 171 204 162 137 155 166 204 212 304 207 232 182 287 282 22 44 0 315 7 54 59
272 276 286 284 284 277 232 224 221 203 202 173 143 154 264 222 192 213 216 234 240 147 224 209 181 181 171 169 193 169 204 217 233 257 211 258 264 276 268 220 309 179 113 69 60
273 276 289 285 274 274 205 165 106 188 192 200 171 241 313 207 177 188 182 178 235 146 195 191 191 191 185 192 166 153 185 215 255 258 268 279 275 278 278 257 216 176 120 77 70
278 287 285 290 277 258 179 180 184 161 185 229 225 220 248 77 187 182 162 168 177 179 203 188 206 197 144 157 173 145 188 251 283 216 189 306 285 274 268 266 178 162 155 138 90
287 291 289 291 273 204 176 185 172 156 344 202 209 232 236 221 238 181 166 189 132 173 203 198 168 185 167 158 175 193 192 251 239 334 317 327 290 311 338 105 108 123 140 123 116
283 284 296 299 199 201 192 188 205 162 245 184 193 248 172 166 253 167 182 172 167 192 195 226 156 184 173 179 158 222 198 210 283 21 260 37 286 295 266 186 146 142 146 154 135
281 285 291 252 281 181 210 191 185 179 202 153 176 176 144 200 158 174 182 212 164 171 171 179 173 182 175 196 167 217 149 193 222 210 355 286 297 270 154 206 195 182 172 193 160
284 285 287 282 240 253 155 159 149 219 229 181 159 176 147 203 215 138 179 118 182 149 64 202 145 162 161 169 177 154 81 57 54 83 292 228 186 275 207 211 158 168 179 189 160
289 286 258 236 176 141 141 134 129 234 155 155 165 158 166 162 179 158 181 200 165 157 184 193 158 159 141 133 69 107 119 284 277 282 229 78 168 253 227 231 184 180 186 186 173
294 287 256 222 191 150 147 93 226 140 199 144 132 143 167 156 195 166 186 200 233 191 156 159 172 179 173 178 150 184 173 163 199 204 260 114 238 251 228 280 247 166 158 156 172
305 283 213 202 169 155 138 200 243 184 185 148 127 146 191 181 246 171 206 205 196 189 163 162 184 151 155 121 140 198 202 190 102 13 49 237 289 307 360 19 119 149 145 169 174
273 219 201 187 172 151 158 254 230 125 117 145 141 182 184 168 181 165 169 184 165 202 154 191 106 132 138 99 81 175 160 110 9 229 249 287 279 246 337 342 132 155 163 162 167
177 143 353 169 165 181 226 228 260 140 141 162 119 159 180 155 167 125 163 218 190 178 128 136 107 181 137 179 162 161 163 58 123 138 176 303 274 217 272 256 196 183 163 162 173
174 63 154 151 193 187 229 254 177 145 106 130 97 125 148 136 144 154 185 228 178 144 144 179 123 147 158 259 179 163 168 154 148 214 133 145 274 337 285 274 148 146 152 177 188
148 113 177 219 247 196 278 151 106 163 20 144 134 154 140 152 124 140 256 295 152 136 164 174 123 106 90 79 335 192 177 127 116 99 187 153 261 355 46 89 134 148 191 196 167
176 130 158 211 265 260 161 172 210 284 273 212 163 145 146 138 20 137 166 199 124 114 105 95 143 153 189 182 141 176 179 169 144 153 175 219 272 352 50 132 158 136 172 200 170
185 214 179 201 239 226 187 171 210 179 221 176 123 157 162 130 94 122 128 107 55 135 86 137 135 123 45 133 136 180 180 181 194 200 187 216 204 215 160 221 251 301 131 162 171
182 158 164 258 284 157 191 204 199 127 29 86 115 121 97 130 161 172 142 140 173 163 148 103 158 114 76 66 110 188 187 182 193 163 209 136 227 177 96 99 55 10 60 158 173
211 302 153 106 108 176 213 169 173 139 15 26 126 102 70 225 145 88 89 85 128 135 124 145 134 120 175 124 119 294 215 184 179 181 153 193 201 152 88 115 77 17 329 234 201
Height
778 777 777 777 777 778 778 778 780 780 781 783 784 788 790 792 793 794 794 792 792 792 793 794 796 799 799 798 799 804 823 828 818 817 805 793 796 784 779 782 775 767 765 762 759
777 777 777 776 776 777 777 777 777 778 779 782 781 783 788 791 791 789 787 788 790 790 793 793 794 797 801 799 801 808 823 817 803 800 798 793 794 789 786 784 775 767 762 760 758
777 776 775 774 774 774 774 775 775 776 777 779 780 783 786 789 791 779 779 780 784 788 792 792 792 795 801 799 801 805 813 803 796 793 792 793 791 785 787 786 774 771 763 760 760
775 775 773 772 772 772 773 773 773 774 775 776 779 783 786 788 790 776 771 774 778 786 790 789 790 795 800 803 796 803 798 796 791 787 789 791 787 788 784 776 765 764 763 760 760
772 772 771 771 770 770 770 770 770 772 773 775 777 780 785 785 777 773 773 774 777 783 785 785 788 791 797 796 796 799 794 790 788 789 791 789 789 787 778 768 763 763 761 760 759
770 769 768 767 767 768 768 768 767 769 770 773 776 779 784 782 771 772 773 774 776 779 780 781 781 783 789 791 794 790 791 790 789 788 787 787 781 780 768 764 762 761 760 758 757
767 766 765 764 765 766 766 766 767 767 768 771 774 777 777 765 769 769 771 771 774 775 776 776 778 779 780 787 785 785 794 793 789 785 784 783 779 777 761 763 764 763 761 756 756
763 762 761 760 761 761 762 763 765 766 767 769 772 775 768 764 767 769 771 769 770 772 776 774 775 777 780 778 785 794 796 806 788 783 780 782 779 766 758 761 763 764 765 761 760
759 758 758 757 756 756 758 760 762 764 767 769 772 773 767 763 763 764 769 771 769 771 775 775 776 778 778 785 793 794 803 808 799 782 783 786 787 762 759 759 763 764 768 765 761
755 754 754 752 751 751 753 756 759 764 767 770 771 776 765 758 758 760 764 769 770 771 777 773 776 781 784 791 798 798 799 800 803 785 784 787 786 765 761 759 762 766 768 768 765
751 750 749 747 745 744 747 753 762 766 762 757 758 757 753 755 755 758 760 767 768 769 769 768 773 774 780 777 784 790 796 800 791 785 787 788 787 770 761 761 762 769 770 770 768
746 747 744 741 739 739 741 746 746 748 757 755 753 756 753 755 755 755 758 764 763 767 768 768 768 765 776 780 782 786 793 798 791 784 786 784 780 767 762 758 760 768 771 771 768
742 742 739 737 735 734 734 738 744 746 750 749 749 750 751 755 753 752 754 757 762 766 763 760 761 763 773 782 786 789 795 794 796 789 783 787 781 771 759 758 763 767 769 771 770
737 737 735 734 735 733 733 737 743 747 753 745 747 743 745 750 750 744 748 751 758 762 762 763 762 764 768 780 782 797 788 786 790 799 807 789 805 780 764 763 766 769 771 772 773
734 733 733 731 732 730 730 733 741 749 744 735 739 733 735 747 740 745 743 748 756 755 757 761 763 768 769 770 779 785 781 787 789 800 802 796 807 778 766 767 767 770 772 774 774
729 729 730 729 729 728 725 732 742 740 727 734 728 733 740 741 738 742 746 748 747 754 755 756 754 759 767 768 773 777 787 792 801 806 814 795 796 783 770 764 763 766 770 774 774
724 725 726 724 723 726 729 733 738 728 731 728 726 726 730 736 738 737 746 751 746 759 764 762 762 759 757 773 775 781 787 810 809 815 809 793 801 775 752 753 753 760 768 773 775
718 718 718 719 719 722 729 734 721 715 719 711 719 723 729 728 733 737 741 743 743 739 751 765 774 764 755 761 778 784 788 804 806 811 802 798 794 763 749 754 752 751 760 771 775
712 709 710 711 716 720 729 725 711 697 702 706 717 722 728 724 729 732 740 739 735 734 744 762 762 754 750 754 765 786 784 779 795 802 805 790 773 752 749 753 753 756 762 770 773
708 707 706 706 712 719 724 714 697 685 695 704 710 715 720 723 724 733 734 724 727 729 729 747 767 754 755 754 763 769 771 787 798 795 798 791 784 770 749 749 757 762 764 769 771
705 704 703 703 712 715 710 710 688 685 689 694 702 711 710 719 721 729 732 727 719 729 726 737 749 763 759 762 769 772 776 784 785 796 796 800 780 759 752 750 757 761 764 767 769
702 702 705 707 706 701 699 685 682 685 686 687 690 697 704 716 717 723 725 719 713 719 731 730 752 766 759 755 758 758 767 771 786 792 803 803 783 752 755 752 756 762 764 766 767
702 701 706 706 693 692 688 685 683 686 686 689 692 692 697 708 715 716 720 713 713 716 724 731 748 768 765 760 759 758 762 767 778 785 797 795 780 752 756 754 756 759 761 762 766
700 697 703 703 697 691 688 688 687 689 690 685 687 690 693 701 704 718 723 713 712 713 717 720 741 747 756 746 755 762 761 765 765 785 786 784 763 751 755 755 754 755 756 761 766
698 686 687 694 691 688 683 685 686 687 686 680 685 687 692 703 707 715 716 716 716 719 722 725 736 738 744 743 744 748 751 762 763 758 767 758 768 753 751 753 755 756 758 762 766
692 690 691 689 683 682 685 686 684 682 681 680 687 690 687 693 694 708 709 711 715 720 721 726 740 735 745 744 742 744 746 757 756 758 755 761 759 751 754 755 755 756 756 759 764
685 684 682 686 684 683 679 680 680 680 685 683 684 689 696 696 697 699 705 709 709 714 724 728 736 741 748 746 745 750 747 752 751 749 751 760 752 751 755 757 754 754 755 757 761